Theta_e
306 306 306 306 306 306 306 306 306 306 306 306 306 306 306 306 306 307 307 307 307 308 308 307 307 308 308 308 308 308 306 303 301 301 303 304 303 304 305 304 304 304 306 311 312 312 313 313 313 314 314 315 314 314 315 316 313 314 317 316 313 313 313 313 315 313 311 313 313 310 312 310 313 335 343 341 345 346 345 345 342 342 342 342 343 342 343 343
306 306 306 306 306 306 306 306 306 306 306 306 306 306 306 306 306 306 307 307 307 307 308 307 307 308 308 307 308 307 304 302 302 304 307 303 303 304 303 304 304 303 305 310 312 311 311 312 313 313 313 313 313 314 315 315 315 315 316 315 314 314 313 312 313 312 311 312 314 311 311 309 312 332 337 338 346 345 346 347 343 343 343 344 343 342 344 343
306 306 306 306 306 306 306 305 305 306 306 306 306 306 306 306 306 306 307 307 307 307 307 307 307 307 307 308 307 306 303 302 304 306 307 305 306 306 304 303 302 303 304 307 311 311 310 311 313 312 312 313 314 314 315 315 316 315 314 315 315 314 313 312 311 311 311 311 312 311 311 310 310 317 324 335 346 345 345 346 343 345 345 345 344 342 343 343
305 306 306 306 305 305 305 305 305 305 306 306 306 306 306 306 306 306 306 306 307 307 307 307 307 307 307 308 306 303 302 305 305 304 310 311 310 308 308 306 303 303 303 306 311 311 309 311 312 312 311 313 313 314 315 315 316 315 314 316 314 312 313 313 312 312 311 310 311 311 311 312 310 313 325 337 341 340 341 342 341 344 346 343 342 342 343 344
305 305 305 305 305 305 305 305 305 305 305 305 305 306 306 306 306 306 306 306 306 306 307 306 307 306 307 306 304 302 304 308 302 307 312 312 310 306 307 310 307 303 303 308 311 309 309 311 312 311 311 313 314 314 315 314 314 314 314 316 314 310 312 314 312 312 311 309 310 311 311 312 310 318 335 339 329 329 333 337 341 342 343 342 342 342 342 343
305 305 305 305 304 304 305 305 305 305 305 305 305 305 306 306 306 306 306 306 306 306 306 306 306 306 307 305 303 303 304 303 304 308 311 308 306 305 305 311 309 303 306 311 310 308 309 311 311 310 310 313 315 315 315 314 311 313 313 313 314 311 312 313 312 312 310 310 311 311 311 310 310 314 329 337 326 317 322 327 338 342 341 342 342 342 342 342
304 304 305 305 303 303 304 304 305 305 305 305 304 305 305 305 305 305 306 306 306 306 306 306 306 306 306 303 304 305 303 304 305 306 307 304 303 304 305 311 308 304 307 310 309 308 309 310 310 310 310 310 314 315 315 314 311 314 314 313 314 311 312 312 311 312 310 311 311 310 309 309 312 310 319 334 325 317 326 331 338 343 342 342 341 341 342 342
304 304 304 304 303 304 303 303 305 305 305 305 304 304 305 305 305 305 305 306 305 305 305 306 305 306 305 303 304 304 303 305 302 302 303 303 304 305 308 311 307 305 309 310 310 309 308 309 309 309 310 309 313 315 314 314 313 314 315 314 314 312 313 311 311 312 311 310 308 308 310 309 311 309 314 321 317 325 338 342 341 341 341 341 341 341 342 342
303 303 303 303 303 303 303 303 304 305 304 304 304 304 305 305 304 304 305 305 305 305 305 306 305 305 305 304 303 301 302 303 303 305 306 308 310 309 311 310 307 308 310 310 310 309 308 308 308 308 310 309 312 314 314 315 315 315 315 314 314 315 314 312 312 312 311 309 308 310 311 310 308 309 312 312 322 336 341 343 341 341 341 341 342 341 341 341
303 303 303 303 303 303 302 302 303 304 304 304 304 304 304 304 304 304 304 305 304 305 305 305 305 305 305 304 302 300 302 303 307 311 310 312 312 312 313 308 308 311 310 309 309 309 309 308 308 309 310 311 313 313 313 315 313 314 314 314 314 316 314 311 311 311 309 308 309 311 311 310 306 309 313 316 331 341 342 342 341 341 341 341 342 341 341 341
302 303 302 302 303 303 303 303 303 303 304 304 304 304 304 304 304 304 304 305 304 304 305 305 305 305 306 305 302 299 303 306 309 311 309 312 313 313 312 307 309 312 309 308 309 309 309 309 309 311 311 312 313 312 312 313 312 313 313 313 313 313 310 309 310 310 309 309 310 309 311 311 307 311 311 319 335 343 342 342 340 340 342 341 341 340 341 341
302 302 302 301 302 303 303 304 303 303 303 304 304 304 304 303 304 303 304 304 304 304 305 305 305 305 306 306 304 301 304 308 311 310 307 310 313 313 311 309 310 311 310 309 308 309 309 309 311 312 311 312 313 312 312 312 311 311 310 312 312 310 310 310 310 309 309 310 309 309 311 311 311 313 308 320 338 343 341 343 340 341 341 340 341 340 340 341
301 301 301 301 302 303 304 304 303 303 303 303 303 303 303 303 303 303 304 304 304 304 304 305 305 304 306 306 304 301 301 305 307 308 306 307 309 311 312 311 310 310 311 310 309 308 309 311 312 312 312 313 313 311 310 309 309 309 309 311 312 311 312 311 309 308 309 309 309 310 311 311 313 312 308 325 340 343 343 344 341 342 342 341 342 340 340 341
301 302 301 301 302 303 303 303 303 303 303 302 302 303 303 303 303 303 303 304 304 304 304 304 304 306 307 306 302 300 301 300 301 303 303 302 304 308 311 312 311 310 310 310 309 309 309 310 312 313 312 313 313 312 310 309 308 309 309 310 311 311 311 311 309 308 310 309 308 310 310 311 313 312 309 327 341 344 344 346 342 342 342 342 342 341 341 340
302 302 302 302 302 303 303 302 302 303 302 302 302 302 303 302 303 303 303 303 304 303 304 305 306 306 306 305 302 302 304 303 301 301 301 301 303 307 311 312 312 311 310 309 310 309 308 309 312 314 313 312 313 314 312 309 309 309 310 310 309 310 311 311 310 309 310 309 308 310 311 310 313 312 306 321 341 344 341 344 342 343 342 343 343 341 341 340
302 302 302 302 302 303 302 302 302 302 302 302 302 302 302 302 302 302 303 303 303 303 304 306 306 306 306 305 302 304 306 306 305 304 304 303 302 306 311 312 312 311 311 310 310 310 309 309 311 312 312 312 313 314 312 310 310 309 310 311 309 309 310 310 310 309 309 309 309 310 311 311 312 311 307 320 341 343 340 343 342 343 343 342 343 342 341 341
302 302 302 302 302 302 302 302 302 302 302 302 302 301 301 302 302 303 303 303 303 304 306 306 306 306 308 304 304 305 305 307 306 306 307 305 302 305 310 313 313 313 312 310 310 310 309 309 309 310 312 312 311 313 314 313 312 310 311 311 310 310 309 309 310 310 309 310 311 310 311 312 312 311 308 320 339 343 341 342 342 343 343 342 342 342 342 341
302 302 302 302 302 301 301 301 301 302 302 302 301 301 301 303 303 303 304 303 303 304 305 307 306 306 307 304 304 306 305 307 307 307 309 305 304 308 311 313 314 314 312 310 310 310 309 309 310 311 312 311 311 313 315 314 312 311 311 311 310 310 310 310 310 310 310 312 313 312 313 313 312 312 309 315 333 343 342 341 343 343 342 343 342 342 342 341
302 302 302 302 302 301 301 301 301 302 302 301 300 300 302 305 304 303 304 304 304 302 302 307 306 303 303 304 303 305 305 306 307 308 309 306 306 311 312 313 313 313 312 310 310 310 309 310 310 311 313 313 312 312 314 313 311 311 311 311 310 309 310 310 311 310 309 312 313 313 314 314 312 311 311 316 327 339 342 341 343 343 342 342 342 342 342 342
302 302 302 302 301 301 301 301 301 301 301 301 300 300 301 306 308 306 305 305 305 303 301 304 306 303 302 303 304 305 305 306 307 308 309 307 309 312 311 311 311 312 311 310 310 310 310 311 310 312 313 313 312 312 313 312 310 311 311 311 310 309 310 310 311 309 308 312 314 314 314 313 311 311 316 321 325 332 337 339 341 342 342 341 342 342 342 342
301 301 302 301 301 300 301 301 301 301 301 301 300 299 299 302 306 306 304 305 306 306 304 303 305 306 304 303 305 305 304 306 307 308 309 308 310 311 310 310 311 312 312 310 310 310 310 312 312 313 313 313 312 313 314 312 311 311 310 310 309 309 310 310 310 309 309 313 314 313 312 311 311 314 319 321 323 328 332 335 339 341 341 340 341 341 341 341
300 301 301 301 300 300 300 301 301 301 300 300 299 299 299 299 301 303 303 304 304 305 305 304 304 304 304 304 304 304 304 305 306 307 309 309 310 310 310 311 312 313 311 309 311 311 311 313 313 312 312 312 312 311 314 314 313 312 310 310 310 309 309 310 311 310 311 313 314 313 313 313 313 316 321 323 324 328 329 331 334 337 340 341 341 340 340 340
300 300 301 301 300 300 301 300 300 300 300 300 299 299 299 299 301 302 303 304 305 304 304 304 304 303 303 304 304 304 305 305 305 307 308 310 309 309 310 311 312 312 310 310 311 311 312 313 312 310 310 313 312 311 314 314 312 312 311 310 310 309 309 310 311 312 312 312 314 313 315 318 318 318 323 326 327 329 329 329 329 330 333 336 339 339 339 340
300 300 301 301 300 300 300 300 300 300 300 299 300 300 300 301 302 303 303 304 305 304 303 304 304 304 304 305 305 305 305 306 306 307 309 309 308 308 310 311 311 311 310 311 311 311 312 312 311 309 310 313 312 311 313 312 311 312 313 311 310 310 310 310 311 312 313 313 314 314 315 319 322 324 326 327 329 331 331 330 330 329 328 330 335 337 337 338
300 300 301 301 300 300 300 299 300 300 299 299 300 301 302 302 302 302 303 306 307 305 304 305 305 305 306 306 306 306 306 306 307 308 309 309 308 309 310 310 312 312 311 311 311 312 312 311 309 309 310 311 311 311 312 312 312 312 313 312 311 311 311 312 312 313 314 313 313 312 312 317 322 326 328 328 330 333 332 331 331 329 328 329 332 334 335 335
300 300 301 300 300 300 299 300 300 299 299 299 300 301 302 301 301 302 303 306 308 306 305 306 306 307 307 307 307 307 307 307 308 309 309 309 310 310 311 310 311 312 310 310 312 313 311 309 310 310 310 311 311 311 311 312 312 312 313 313 311 312 312 312 312 312 311 313 313 312 312 316 321 327 327 326 330 333 333 332 331 330 329 329 329 330 332 333
300 300 301 300 299 299 300 300 300 299 299 300 301 301 301 300 300 302 304 305 306 306 305 305 305 306 307 307 307 307 306 308 309 309 309 310 310 310 311 310 310 310 309 311 313 313 312 310 311 311 311 311 312 312 311 311 311 312 315 312 310 311 312 312 312 311 312 314 314 313 312 313 317 324 325 326 330 333 333 332 331 330 329 329 329 330 331 333
300 300 300 300 299 300 300 300 299 299 299 300 300 300 300 300 301 304 306 304 305 306 306 306 306 307 307 307 308 308 307 308 310 310 309 309 309 310 311 311 311 311 309 311 314 313 313 313 312 311 312 312 312 313 312 311 311 313 314 310 309 311 312 312 311 312 314 314 313 313 313 312 316 323 325 328 332 333 333 333 331 330 329 330 330 329 331 332
299 300 300 299 299 299 299 299 299 299 298 299 300 299 299 301 304 307 306 307 309 308 306 307 306 306 307 308 308 308 309 309 308 309 309 309 309 309 310 310 310 310 309 311 314 312 311 312 312 311 312 312 313 312 311 311 312 312 310 309 310 311 311 312 311 313 314 313 312 314 314 311 314 323 327 329 333 333 333 333 333 331 330 330 330 330 330 330
299 299 299 299 299 299 299 298 298 298 298 299 300 299 301 303 306 307 307 309 312 309 306 305 305 307 308 309 309 309 309 308 307 308 308 308 309 308 307 307 309 310 310 310 313 311 310 311 312 312 312 312 312 311 309 311 311 309 309 309 310 311 312 313 313 314 314 314 313 314 316 312 312 324 330 330 334 335 333 333 333 332 330 330 330 329 329 329
299 299 299 299 298 298 299 299 299 299 299 299 299 300 304 307 308 308 309 310 311 312 309 304 305 309 310 310 310 309 309 308 307 308 308 308 308 308 308 308 309 310 311 311 312 310 309 310 311 311 312 311 311 310 308 309 309 310 311 311 311 313 313 313 314 314 314 315 313 312 314 311 311 325 331 332 334 334 333 334 333 332 331 330 329 328 328 328
299 299 299 298 298 298 299 299 299 300 300 299 299 301 307 309 307 308 310 309 312 314 312 308 308 310 310 310 309 309 309 308 308 309 308 308 308 309 309 310 310 311 312 312 313 311 310 311 310 310 311 311 311 311 309 309 309 311 312 312 312 313 314 314 314 314 315 315 312 311 312 312 317 328 331 332 333 332 332 333 331 331 330 329 328 328 327 327
299 299 298 298 298 298 298 299 298 299 299 299 300 304 307 308 307 308 308 308 312 314 314 311 309 309 309 309 308 309 309 308 308 308 308 308 309 309 309 309 310 313 313 312 312 312 311 310 309 309 310 311 312 312 311 311 311 311 313 313 313 313 314 315 313 313 315 314 311 310 312 316 324 330 331 330 331 330 331 330 329 329 329 328 327 327 326 326
299 298 297 298 298 298 298 298 298 298 298 299 303 306 307 307 308 309 308 307 309 312 314 312 310 309 309 308 308 309 308 308 308 308 307 308 309 309 309 308 309 313 314 312 311 312 312 311 310 310 310 311 311 312 312 312 311 311 312 312 313 314 314 314 313 314 315 315 312 310 313 320 328 331 330 329 329 329 330 329 329 328 327 326 326 325 325 325
298 297 297 298 299 299 299 299 299 299 298 301 304 306 307 307 307 311 312 310 309 310 311 311 310 309 309 308 308 308 309 308 307 308 308 308 309 310 310 308 309 312 312 311 311 311 311 312 311 309 310 310 311 311 311 312 312 311 310 312 314 314 314 313 312 314 316 314 314 316 321 325 329 330 328 328 329 329 330 329 328 327 326 325 324 324 324 323
297 298 299 300 300 300 300 299 300 299 299 303 306 306 307 307 308 311 312 312 310 308 309 311 311 310 309 309 308 308 309 309 308 308 308 308 309 309 310 309 309 310 311 313 314 311 310 312 311 309 309 310 311 311 310 312 313 311 310 313 312 311 315 315 311 312 315 314 314 319 327 329 329 331 329 328 330 331 330 329 327 326 325 324 323 322 322 321
298 299 300 301 302 303 302 300 299 299 301 304 307 308 307 305 307 310 310 310 308 307 310 312 312 309 309 309 308 307 309 309 308 309 308 309 310 309 309 310 309 310 311 313 314 312 311 313 311 310 310 309 310 311 310 310 312 312 312 313 311 310 314 316 313 312 313 314 317 321 329 331 332 333 331 329 331 332 330 329 327 325 324 323 322 321 320 319
299 300 301 303 304 304 303 300 299 300 304 306 307 309 307 304 306 308 308 308 306 308 312 313 312 309 308 310 309 307 308 309 309 309 308 310 313 311 310 310 310 309 309 311 314 313 312 313 311 310 310 309 309 311 310 309 309 310 312 312 311 313 314 314 314 314 312 314 319 324 328 329 331 332 332 331 333 333 331 328 326 324 323 322 321 319 318 317
300 301 304 305 304 304 302 300 300 303 307 308 307 308 307 306 307 308 308 306 305 310 314 312 311 310 309 310 309 307 308 309 308 309 308 310 314 313 312 313 311 308 308 310 313 312 312 314 311 309 309 308 310 312 312 311 310 309 311 310 311 315 315 314 314 315 314 314 319 327 328 327 327 329 330 331 332 333 330 326 325 323 321 320 319 317 316 315
301 303 306 305 303 303 301 300 304 307 308 308 308 307 306 306 307 307 306 305 306 312 314 310 309 310 309 309 308 307 310 310 309 312 312 313 315 314 314 316 313 309 308 308 312 314 314 316 314 309 308 309 312 314 314 313 311 310 312 312 312 313 312 313 314 312 313 313 317 325 327 324 323 326 328 330 332 331 327 324 323 321 319 318 316 315 315 314
301 305 307 304 302 301 301 303 307 308 309 308 307 306 305 306 308 307 305 304 306 309 309 308 309 310 310 309 307 309 315 316 315 317 317 315 317 316 315 318 316 311 308 308 312 317 316 316 316 313 313 315 317 317 316 315 313 312 313 313 313 314 313 314 314 311 312 313 315 321 323 320 323 325 328 330 330 327 324 322 321 319 317 316 314 313 312 311
302 307 308 304 302 301 303 306 307 308 309 308 306 305 305 306 307 306 305 306 308 309 309 310 309 309 310 310 309 313 319 319 319 321 319 317 319 319 315 317 317 311 310 311 314 320 322 320 318 315 315 318 317 314 314 316 315 315 315 313 313 315 315 314 315 314 314 314 315 316 315 320 325 327 329 328 326 324 322 321 319 316 315 314 312 311 310 309
304 307 307 304 302 302 305 307 307 309 309 308 306 304 304 306 307 305 304 307 309 309 309 310 309 308 309 310 313 316 318 318 317 319 320 318 318 317 315 317 317 312 313 316 315 320 324 322 319 316 315 316 313 312 314 316 316 318 319 317 315 315 318 318 317 318 317 315 315 313 315 324 328 327 326 325 322 322 320 319 317 315 313 312 311 310 309 308
304 305 306 304 302 304 307 307 307 308 308 308 308 307 306 308 308 305 303 305 308 308 309 310 309 309 310 311 314 315 315 318 318 316 318 319 317 316 315 318 319 317 318 318 314 317 318 316 316 316 317 318 317 316 316 317 319 321 321 319 315 314 317 319 318 318 317 317 316 313 318 327 329 326 323 321 319 319 318 316 315 314 312 311 310 309 307 307
303 306 307 305 303 305 307 308 308 308 310 312 313 313 311 310 309 307 304 304 306 307 309 310 307 309 312 313 315 314 314 319 320 317 317 318 318 316 315 318 323 325 324 321 320 319 317 316 316 314 315 318 318 319 318 319 321 320 318 319 317 316 319 320 318 315 315 316 316 316 323 328 328 326 323 320 318 318 315 313 312 312 311 310 309 308 307 306
304 307 306 305 305 305 307 309 310 311 313 313 313 313 313 311 310 309 308 309 309 308 309 309 308 311 314 316 318 317 315 316 318 318 318 319 318 316 314 317 322 324 325 323 323 323 318 314 316 317 317 316 316 318 317 319 324 324 320 320 320 320 322 320 317 315 316 317 317 320 327 330 330 327 325 321 318 317 315 313 311 311 310 309 308 307 306 306
304 306 306 306 306 306 306 308 309 312 313 312 311 312 314 312 310 310 311 311 309 308 308 309 310 312 315 317 320 319 315 316 317 317 318 317 317 316 314 315 317 321 324 321 320 324 322 317 315 317 317 316 315 315 315 317 322 324 322 322 322 321 322 323 321 319 318 318 317 322 328 331 330 327 324 321 318 317 315 313 311 310 309 308 307 306 306 305
304 307 307 307 307 307 307 307 308 310 312 312 312 313 315 313 312 313 311 309 309 308 310 313 312 311 313 317 321 319 316 318 318 318 318 317 317 319 318 315 315 319 321 318 318 323 325 319 316 316 315 313 313 314 315 316 317 318 319 321 322 320 322 327 328 322 322 321 321 324 328 330 329 326 322 318 317 316 313 311 310 309 308 307 306 306 305 304
305 307 307 308 309 309 307 307 309 311 312 314 314 314 315 315 314 314 310 310 314 311 312 317 313 308 311 316 321 322 320 320 319 317 318 318 317 319 320 317 316 317 320 321 319 319 322 320 316 316 317 314 313 313 314 315 316 317 317 318 320 320 319 322 322 319 322 326 325 327 328 325 322 320 316 313 312 311 310 309 308 308 307 306 306 305 304 304
305 306 306 308 310 310 309 310 311 312 312 314 315 314 314 315 316 314 309 309 315 314 314 317 311 307 309 313 317 318 317 320 322 318 319 319 316 316 318 316 314 316 320 322 319 318 321 320 315 316 318 316 314 314 314 315 316 317 316 315 318 320 319 319 321 320 323 325 325 326 327 322 315 312 311 309 309 308 308 307 307 306 306 305 305 304 303 303
304 304 305 307 310 311 311 311 312 312 311 312 314 314 314 315 314 313 309 306 308 312 315 315 310 308 309 309 311 311 309 314 318 315 315 318 314 313 315 313 312 317 323 322 320 321 321 318 314 317 321 319 315 315 315 316 316 317 317 316 317 320 320 319 319 319 321 325 325 325 327 322 313 309 309 308 307 307 307 306 305 305 304 304 304 303 302 302
302 303 304 306 309 310 312 312 310 310 311 312 314 314 315 316 311 309 311 309 306 308 310 310 310 311 311 310 310 308 306 308 310 309 310 312 310 309 311 310 309 315 322 321 318 317 318 318 316 318 321 320 315 315 315 316 319 319 317 314 315 318 318 318 317 316 317 321 323 323 322 317 310 309 309 308 306 306 306 305 304 304 303 303 303 302 301 301
Wind_Speed
14 14 15 14 14 15 15 14 14 14 14 14 14 14 14 14 14 14 14 14 14 14 15 15 16 16 16 16 17 17 18 19 20 17 14 21 21 16 17 16 11 7 10 10 12 13 8 5 6 8 7 3 1 2 2 1 1 2 2 2 3 3 3 4 5 3 1 3 3 5 6 6 5 3 2 1 6 5 3 3 2 2 5 5 6 12 15 16
14 13 13 13 14 15 15 15 15 14 14 14 14 14 14 14 14 14 14 14 14 14 14 15 15 16 16 16 17 17 19 20 17 16 23 26 21 20 22 21 17 12 11 13 16 15 9 5 6 7 4 2 0 1 2 1 2 2 2 2 4 4 2 3 2 2 1 4 5 5 3 3 6 1 1 1 2 2 5 3 2 2 5 7 10 14 14 16
14 14 13 13 14 15 14 14 15 15 14 14 14 14 14 14 14 14 14 14 14 14 14 14 15 15 15 16 16 17 18 15 10 12 18 16 11 14 18 22 22 17 13 14 17 16 12 11 12 8 3 2 1 2 3 2 3 2 2 3 5 3 3 3 3 4 4 4 7 5 2 3 4 1 1 1 2 2 5 3 2 3 6 9 11 13 14 16
15 14 14 14 14 15 15 14 14 15 15 14 14 13 13 14 14 14 14 14 14 14 14 14 14 15 15 16 15 15 13 8 4 4 2 2 2 5 7 15 21 20 15 13 15 14 12 15 12 5 3 2 1 2 5 4 3 3 3 4 3 2 4 4 5 6 4 3 4 3 4 4 2 0 2 5 5 2 4 4 5 3 9 14 12 13 14 15
15 15 15 15 15 14 15 15 14 14 15 14 14 14 13 13 13 14 14 14 14 14 14 14 14 14 15 15 13 12 7 3 2 2 5 5 5 12 11 8 17 20 17 16 15 12 12 13 8 3 2 3 4 4 5 5 3 4 3 4 3 2 3 4 3 5 3 2 2 3 6 5 2 0 2 5 4 2 1 3 5 2 10 15 13 13 13 14
15 15 15 15 15 15 15 15 15 15 15 15 14 14 13 13 13 14 14 14 14 14 14 13 13 14 14 14 10 6 3 3 4 2 2 8 14 17 13 6 15 20 21 20 17 14 11 10 8 6 3 3 7 6 4 5 4 4 2 2 5 4 4 3 2 3 2 2 3 3 4 2 2 3 1 4 2 1 3 3 1 7 13 15 14 13 13 13
15 15 15 15 16 16 16 16 15 14 15 14 14 14 13 13 13 14 14 14 14 14 14 13 13 13 14 11 4 2 1 7 12 7 9 19 22 20 13 5 16 23 23 21 16 12 9 10 9 6 5 4 5 7 4 5 4 5 4 2 5 5 6 5 3 4 3 5 4 1 4 2 2 2 2 4 5 4 5 2 6 11 14 14 14 12 12 12
15 15 16 16 16 16 15 15 14 13 15 14 14 14 14 14 13 14 14 13 13 13 13 12 12 12 13 9 1 1 1 12 21 18 19 21 19 16 7 7 20 25 24 23 18 13 10 11 10 5 6 4 4 8 5 6 5 6 6 3 4 4 5 5 4 7 5 5 3 2 5 1 2 1 3 5 5 4 3 5 10 11 12 12 12 12 11 11
16 16 16 16 16 15 15 16 14 14 16 15 14 14 15 14 14 14 14 14 14 12 12 11 10 10 11 6 1 2 6 11 15 16 16 15 12 8 6 12 23 26 21 22 21 16 11 10 10 6 5 4 6 8 6 6 5 6 8 4 5 5 4 2 4 6 3 2 2 4 5 2 1 2 3 3 2 1 2 7 9 10 10 10 10 11 11 10
17 16 16 16 16 15 15 16 15 14 15 14 14 15 15 14 15 15 14 14 13 12 11 10 9 8 7 3 1 3 6 7 7 7 8 8 6 5 10 16 26 25 18 17 18 17 10 9 8 4 3 3 5 6 6 7 3 5 8 6 8 7 4 1 4 5 2 2 6 7 5 3 2 2 2 1 1 2 5 7 7 8 8 9 9 9 9 9
17 16 17 17 16 15 14 14 15 15 15 15 13 15 15 14 15 15 14 13 12 12 10 9 8 6 4 1 2 5 4 3 1 5 10 8 2 8 12 21 28 23 19 13 14 17 9 8 9 3 2 4 6 5 4 5 3 4 6 4 7 6 4 4 6 5 2 3 6 7 3 2 2 3 2 2 5 5 6 8 6 7 7 8 8 8 8 8
17 16 17 16 16 16 14 13 13 14 15 15 14 15 15 15 15 14 14 13 12 11 9 8 7 3 2 1 6 13 7 4 3 2 8 9 1 6 7 21 26 19 21 12 11 16 8 11 13 3 1 5 6 4 3 4 3 4 5 3 3 2 4 6 4 2 2 2 4 6 2 1 2 2 2 2 6 6 4 7 7 6 6 7 8 7 7 8
17 16 17 16 16 17 14 12 13 14 14 15 15 16 16 16 15 15 15 14 12 10 8 8 5 4 3 2 11 18 15 14 13 12 10 6 2 3 2 18 21 11 14 10 10 14 8 12 13 3 2 4 4 2 1 3 2 4 4 2 2 1 3 3 0 1 3 2 4 6 4 3 3 4 3 3 7 7 5 6 7 7 6 7 7 7 7 8
16 16 16 15 15 16 16 14 14 14 15 15 16 16 17 17 16 16 15 14 12 10 9 6 4 4 3 7 15 15 14 19 21 24 23 14 9 7 4 14 16 6 6 5 7 14 9 7 6 3 3 2 2 2 1 2 0 4 5 2 1 2 3 0 1 2 4 1 3 6 4 3 3 4 1 3 7 8 6 6 6 6 6 6 6 6 7 7
15 15 15 14 13 14 15 16 16 15 15 16 16 16 18 18 18 17 15 13 11 9 7 4 5 4 2 10 15 10 10 16 23 28 24 15 11 9 8 12 13 9 6 5 5 9 10 4 3 4 2 1 2 2 2 1 1 1 4 4 2 3 2 2 1 3 2 2 1 5 4 1 2 5 2 2 7 7 5 5 6 6 6 6 5 6 6 6
14 14 14 14 14 14 14 15 16 16 16 17 17 18 19 19 19 18 15 13 10 7 4 3 6 6 3 6 6 4 6 9 15 18 16 18 16 10 11 12 9 8 6 3 4 4 6 5 2 1 1 2 3 2 3 2 1 0 2 4 4 5 3 1 2 1 0 2 1 2 2 1 0 3 3 4 7 6 5 4 6 7 6 6 5 5 6 6
15 14 15 16 16 15 14 14 15 15 16 17 17 20 20 17 16 15 11 9 6 7 7 3 5 6 5 7 5 5 5 6 9 9 10 19 19 14 14 9 5 7 5 3 4 4 3 4 2 1 1 2 2 3 5 5 4 2 1 2 2 4 3 1 2 1 1 2 3 0 2 2 0 3 2 4 7 7 7 5 6 6 6 6 6 6 7 7
15 15 15 16 16 16 15 15 16 15 16 17 19 20 15 10 6 2 7 9 7 6 6 3 4 5 5 7 6 3 2 5 6 7 9 15 18 17 15 8 6 9 7 3 3 3 3 1 1 3 3 3 3 5 6 4 5 5 4 4 2 2 2 2 2 1 3 1 2 3 3 3 2 5 3 2 6 8 7 3 3 5 6 6 6 7 7 8
14 14 14 15 15 15 15 15 15 15 17 17 20 16 5 4 6 8 10 10 7 4 3 5 7 3 1 3 3 4 8 9 7 6 8 14 17 15 13 9 9 9 7 4 4 4 4 2 3 5 6 6 5 6 6 4 6 7 5 4 5 5 3 2 1 0 2 1 2 4 3 1 2 4 4 2 2 7 5 2 1 4 5 6 7 7 8 8
14 14 13 14 15 15 15 15 15 15 15 16 19 12 1 2 2 4 4 6 8 4 3 4 10 5 4 1 2 9 10 6 3 3 11 17 17 14 9 7 6 5 5 6 6 4 4 5 6 7 8 8 7 7 5 3 5 6 5 4 4 4 3 2 1 1 1 1 2 2 1 2 3 4 6 5 1 4 4 2 2 4 5 6 7 7 8 5
15 16 14 14 15 16 15 15 14 14 15 16 15 7 1 1 0 1 1 8 13 13 11 8 12 11 9 4 5 10 8 4 4 3 11 16 17 14 6 5 7 5 4 5 5 3 4 7 6 7 7 7 8 7 6 5 5 5 5 4 2 3 3 1 1 2 1 1 1 1 2 5 5 5 7 6 1 1 1 1 1 4 6 6 7 8 7 3
15 16 16 14 15 16 16 15 15 16 17 15 9 3 3 2 3 4 3 6 11 16 17 12 11 14 15 13 8 5 3 4 8 5 9 15 13 11 6 7 8 5 4 4 5 4 5 6 6 6 6 6 5 5 6 6 4 4 3 3 3 3 1 1 1 1 1 0 0 1 5 6 5 4 6 7 4 3 4 2 3 1 4 5 7 7 6 5
15 17 17 15 15 16 15 16 18 17 14 9 5 5 3 3 2 9 5 4 7 9 13 12 12 13 13 12 10 6 4 5 7 6 9 15 9 7 9 9 8 6 6 8 8 7 6 6 7 7 7 8 6 5 7 6 3 3 3 4 3 2 2 3 3 1 1 1 1 3 6 5 4 2 4 7 5 3 3 4 7 6 2 2 5 4 5 7
14 16 17 14 14 15 15 18 16 9 5 5 8 7 2 1 8 11 3 3 6 5 8 12 11 10 11 9 9 13 8 6 6 5 10 15 7 6 9 9 9 6 6 9 9 8 6 5 8 9 8 9 8 6 7 6 3 2 3 4 4 3 2 2 1 1 1 2 2 4 5 4 4 3 3 5 4 4 4 6 9 8 7 5 1 1 1 4
13 15 16 14 14 16 18 16 7 4 8 8 8 3 3 6 10 7 2 3 4 3 4 7 6 7 11 9 11 12 6 6 8 5 9 15 10 7 6 5 6 7 7 8 9 8 5 4 9 10 8 8 9 7 7 7 5 2 4 5 5 6 4 1 1 0 2 3 1 2 3 3 3 3 2 4 4 4 6 9 10 9 9 8 5 4 3 1
14 14 15 14 15 17 16 8 2 8 12 7 3 1 3 11 13 4 2 2 3 2 2 5 5 9 11 10 10 10 4 5 10 11 9 14 12 6 6 4 1 5 8 7 5 3 2 4 8 10 9 8 8 7 5 6 6 3 4 5 5 6 5 3 3 1 2 2 1 1 2 3 1 2 3 5 4 4 7 11 11 10 10 9 7 6 4 3
15 15 14 14 15 15 11 5 8 13 8 1 0 2 7 17 13 3 3 2 3 1 4 2 2 8 10 10 13 11 4 2 6 11 11 13 11 3 6 8 3 4 5 4 4 2 4 6 5 7 9 7 6 6 6 7 6 3 3 7 8 7 7 6 4 3 1 0 1 0 1 2 3 0 4 6 4 4 9 11 11 10 9 9 7 7 6 4
17 16 14 14 14 13 11 11 14 11 5 3 4 7 15 19 6 5 2 2 2 0 3 2 2 5 5 9 14 8 2 3 5 7 11 16 11 1 6 10 7 8 6 6 7 2 4 8 8 10 8 6 5 5 7 8 5 2 3 7 7 6 7 6 5 3 0 1 3 2 1 2 3 0 3 4 2 5 9 10 10 10 8 8 7 7 7 6
17 16 14 14 15 14 13 12 12 10 8 8 9 14 19 11 1 3 1 1 2 1 1 3 3 3 4 7 11 5 1 1 2 4 8 12 8 1 4 7 8 11 5 5 7 3 3 8 10 11 7 6 5 4 10 11 3 2 6 6 4 4 3 3 4 3 2 3 5 3 2 3 3 0 2 1 2 4 6 7 8 8 8 8 8 8 8 7
17 17 14 14 15 13 11 12 15 13 9 9 12 18 12 1 3 1 1 1 0 2 2 2 2 3 8 9 7 7 3 1 1 6 7 6 4 1 2 3 5 8 3 2 5 2 1 2 4 6 5 6 5 4 7 8 5 8 9 7 5 4 2 2 1 1 3 5 5 1 1 2 3 2 1 0 1 2 3 5 6 7 8 8 8 9 9 9
18 17 14 14 15 12 10 10 8 2 2 10 18 15 3 3 1 1 3 1 2 3 3 1 2 5 10 9 6 7 5 1 4 9 7 5 5 3 4 4 3 4 4 4 4 1 2 5 3 3 2 4 7 5 2 3 6 7 6 5 5 3 2 3 2 2 5 5 2 1 1 3 3 2 2 1 2 4 3 4 5 7 8 8 8 9 10 10
19 17 15 16 16 14 12 9 4 1 8 17 17 7 2 2 2 3 2 3 1 2 4 2 1 5 9 5 4 7 6 3 5 9 10 8 8 6 5 6 5 5 5 6 4 1 2 3 1 1 2 4 7 6 3 3 4 4 4 7 7 5 4 4 3 4 4 3 1 2 1 2 1 2 4 3 3 5 4 5 6 7 8 8 10 10 10 10
18 18 19 19 17 18 20 19 15 16 18 16 9 1 1 1 2 4 4 2 2 1 3 4 4 2 8 5 3 6 5 4 6 7 7 8 9 6 2 3 6 5 4 5 5 4 4 1 3 2 2 4 7 7 5 4 5 6 6 7 7 5 5 6 3 3 3 2 1 2 1 2 1 3 5 4 3 4 5 6 6 8 9 9 10 10 10 11
19 21 23 22 20 22 24 22 20 18 13 8 3 2 2 3 2 3 4 2 2 3 3 4 7 2 8 5 4 9 5 2 7 7 7 7 8 6 3 3 5 3 3 4 3 5 6 3 5 7 3 5 8 6 5 7 6 5 3 3 4 3 3 4 4 4 4 3 2 1 1 2 2 2 3 4 3 3 5 6 7 8 8 9 10 10 10 10
21 23 24 22 20 21 20 17 16 11 5 3 1 3 4 4 2 2 2 1 1 1 5 5 6 4 5 3 3 9 5 1 6 7 6 8 7 6 6 5 5 2 4 5 2 2 4 3 3 3 2 7 9 4 5 7 5 3 2 2 3 3 3 2 2 2 3 4 3 1 1 1 1 0 1 3 3 3 5 7 8 9 9 9 9 10 10 9
23 22 19 16 16 14 10 9 12 11 7 2 2 4 4 3 2 1 0 2 2 4 7 5 3 3 3 2 3 8 3 1 7 6 3 5 4 5 5 5 5 4 4 4 2 2 3 2 1 2 2 6 7 6 5 4 4 3 3 4 2 1 4 4 2 2 1 4 3 1 0 1 1 2 4 4 3 4 5 7 9 10 10 10 8 8 8 8
21 18 14 14 14 11 6 7 15 15 7 2 4 5 3 2 2 3 1 2 2 3 3 1 2 3 4 2 3 8 5 2 5 4 3 3 2 3 5 3 4 5 5 3 1 2 3 3 1 2 5 3 0 5 4 0 3 5 4 6 4 2 2 2 3 2 2 3 2 1 1 3 3 3 6 7 6 6 6 7 10 10 9 9 7 7 8 8
19 14 11 13 12 8 6 13 19 13 4 2 4 4 3 3 3 2 1 4 4 2 1 1 3 3 4 3 3 6 5 3 3 3 3 3 1 3 5 4 3 4 4 2 1 1 2 2 1 2 4 2 1 4 5 1 1 2 3 5 4 2 3 2 2 3 4 4 2 1 0 3 5 3 7 11 9 8 8 8 10 9 8 7 6 7 9 8
14 8 5 5 5 4 11 18 16 6 1 4 5 3 2 3 4 3 3 4 3 1 1 2 3 2 3 4 3 4 3 3 4 3 2 2 1 1 2 2 3 4 3 2 2 1 0 1 2 0 0 2 2 3 5 5 1 2 4 4 1 1 3 3 2 2 4 4 3 2 0 4 5 2 7 12 11 10 9 9 8 8 7 6 6 7 8 8
7 4 1 3 2 7 17 17 8 2 2 4 3 2 2 2 4 3 2 3 1 1 1 3 4 3 2 2 2 2 1 2 4 2 0 1 1 0 2 2 3 4 2 1 2 1 0 0 2 2 1 3 3 2 3 6 5 4 5 5 2 1 1 2 2 1 2 3 4 4 1 4 2 1 6 11 10 10 11 10 8 7 7 7 7 7 7 7
4 2 0 2 4 14 17 9 3 2 3 2 1 2 3 2 3 4 3 3 1 2 4 6 7 6 3 1 2 2 2 2 2 2 1 1 1 1 2 1 3 5 3 2 2 2 0 1 2 2 2 2 2 1 1 2 3 3 5 6 5 3 4 5 4 1 1 2 3 4 3 2 2 1 6 10 10 10 11 12 9 7 8 7 7 7 7 7
3 1 1 2 12 16 9 2 1 1 2 2 1 2 3 1 2 4 3 1 1 3 4 5 7 7 4 2 1 2 3 2 1 1 1 2 1 1 1 1 2 4 4 3 1 2 1 2 2 2 1 0 1 2 1 1 2 3 1 3 3 3 4 6 5 3 2 2 2 2 2 2 2 1 6 10 10 10 10 11 11 8 7 7 7 7 7 7
2 1 2 6 15 9 1 2 2 1 2 1 2 3 3 2 2 2 1 0 1 3 3 3 5 5 4 3 1 3 3 2 2 1 1 2 2 1 1 2 3 3 4 2 1 2 1 1 2 1 1 1 1 3 3 2 3 4 3 2 1 1 1 2 3 4 4 3 2 3 3 1 1 3 7 10 11 10 9 10 11 8 7 7 6 6 7 7
2 2 1 8 11 3 3 3 2 1 3 1 2 3 3 2 3 4 2 2 3 3 3 3 4 3 2 1 1 3 3 1 1 1 1 1 2 1 2 2 5 3 2 2 3 4 2 0 2 3 2 2 2 3 3 2 2 2 3 2 1 2 4 4 2 3 3 2 2 4 3 1 2 6 9 10 12 11 10 10 10 8 7 6 6 6 6 7
2 1 2 5 7 4 2 1 1 1 2 1 2 3 3 2 4 6 6 5 6 5 3 3 3 1 1 1 3 2 1 1 1 1 1 1 0 2 4 1 2 2 1 2 3 3 2 1 1 3 4 4 3 3 2 2 2 2 2 2 3 3 3 3 3 3 4 3 2 3 3 3 5 9 10 10 11 11 10 9 8 8 8 7 6 6 6 8
2 1 2 3 3 3 2 2 2 1 2 1 1 2 3 2 3 4 6 5 7 6 3 3 3 1 1 2 4 4 4 4 4 3 2 1 1 1 3 2 2 5 7 8 6 4 4 3 3 3 3 2 2 1 2 1 2 3 2 3 4 3 2 2 3 3 4 5 2 2 5 8 10 10 11 10 10 11 10 9 8 7 8 8 6 6 7 8
2 1 2 3 2 3 3 4 3 2 1 2 2 2 3 3 4 2 4 4 3 3 2 2 1 2 1 2 4 3 3 5 6 4 2 1 1 0 2 1 3 4 5 6 4 2 4 3 4 8 8 4 3 2 3 3 4 4 3 3 3 4 2 2 3 3 5 7 3 3 9 13 13 12 12 10 9 10 9 9 9 7 7 7 6 6 8 9
2 1 1 1 1 2 3 3 4 4 4 2 2 2 1 1 2 2 2 3 1 0 2 1 3 4 2 1 3 2 2 4 4 2 2 2 1 1 2 2 3 4 2 3 3 1 4 3 2 7 9 8 6 4 4 7 8 7 7 6 5 5 3 2 3 1 2 2 3 9 14 11 10 12 11 9 9 9 9 8 8 8 8 7 7 7 8 9
2 2 2 2 2 2 2 2 3 6 7 4 2 2 1 1 4 3 2 2 3 2 1 2 4 5 4 1 3 3 2 4 3 0 1 2 2 1 2 2 2 3 2 3 3 1 3 3 4 6 9 11 9 6 5 7 8 9 10 8 7 7 6 6 5 3 3 2 4 14 14 6 4 8 9 9 8 8 9 8 8 8 7 7 7 7 8 9
1 2 2 2 3 3 2 2 2 5 6 4 3 1 1 2 4 3 1 1 2 3 2 4 2 3 4 4 5 3 1 2 4 3 2 2 2 1 1 1 1 3 4 3 1 1 1 3 3 4 6 8 8 7 7 7 9 10 10 9 8 8 9 8 6 4 4 4 8 14 13 5 3 6 9 9 8 9 9 9 9 7 6 7 8 8 9 9
3 4 3 3 3 2 3 1 2 3 3 3 3 1 1 3 4 2 2 2 1 2 1 5 5 3 6 9 9 5 1 2 6 5 3 3 3 1 1 1 1 0 3 2 1 2 2 4 2 2 3 4 5 6 6 6 9 11 9 9 8 6 6 6 5 4 3 8 14 12 8 5 5 8 9 9 9 10 9 9 8 7 6 7 8 9 9 8
4 4 3 2 2 2 2 1 2 2 2 3 4 2 2 4 3 2 1 1 2 3 3 2 5 4 6 8 8 4 1 6 9 8 5 6 8 6 4 5 4 3 2 2 1 2 2 5 3 1 3 3 1 1 1 1 5 6 4 5 5 5 4 4 4 6 4 5 9 6 3 6 10 10 9 9 9 9 8 7 7 6 7 7 7 8 8 7
Wind_Direction
328 326 324 322 320 323 323 324 323 320 322 323 324 324 323 324 323 324 325 324 325 327 328 330 332 333 331 330 332 328 325 321 315 313 276 259 267 264 260 260 262 235 193 181 166 152 129 129 132 137 141 118 99 153 158 153 131 182 172 174 197 196 202 194 196 182 92 331 326 355 356 338 341 52 99 43 73 90 140 100 101 90 57 66 103 123 131 137
329 326 326 324 320 321 320 319 322 323 320 318 321 321 322 322 320 321 322 322 323 323 327 329 329 331 331 331 331 325 323 319 310 290 268 269 277 269 263 257 251 237 201 182 170 158 143 147 150 145 141 133 148 141 175 187 173 185 137 196 216 193 214 206 195 193 238 310 318 339 347 324 324 22 76 290 96 125 181 146 130 135 90 103 119 130 134 140
331 332 332 329 325 325 324 318 317 321 320 317 316 317 319 318 318 318 319 320 320 322 326 327 328 330 330 330 328 322 321 320 304 271 274 283 279 269 261 250 244 234 213 196 181 172 169 166 156 149 137 139 150 156 166 175 185 187 165 217 225 207 248 237 219 237 234 290 309 327 313 320 332 290 328 229 171 207 206 188 178 180 153 140 133 137 139 144
331 333 332 331 329 324 323 321 318 316 316 317 315 316 316 315 317 316 317 318 318 321 324 326 328 328 329 331 323 320 322 308 273 243 268 51 43 355 305 249 234 223 212 198 186 180 171 156 149 145 139 144 132 154 168 180 184 170 194 223 222 177 246 237 216 242 247 256 286 319 305 319 359 151 248 187 157 203 237 224 226 203 155 151 144 145 146 148
330 331 330 328 328 324 319 319 319 316 315 315 312 315 315 314 314 313 315 315 317 320 322 325 325 328 329 328 325 324 321 278 306 129 120 73 357 348 345 267 221 209 194 182 176 163 151 143 138 130 133 154 152 159 183 186 168 165 198 235 220 173 239 254 224 236 243 215 252 312 313 324 327 268 207 201 160 137 236 227 232 121 136 151 148 150 150 151
329 329 327 326 325 324 321 317 316 315 314 315 312 313 314 314 312 311 313 313 316 317 321 325 324 330 327 329 337 329 282 259 332 115 160 329 321 327 335 277 206 192 180 171 160 149 141 141 157 163 160 162 168 178 178 171 181 197 193 241 233 216 235 265 259 225 206 254 278 303 309 336 317 324 176 233 276 333 332 320 138 100 127 146 146 152 155 156
329 328 328 329 324 319 318 314 313 313 311 312 311 310 311 310 309 309 310 311 314 315 320 323 324 330 327 333 347 358 11 267 273 259 293 308 308 314 319 251 187 180 176 164 151 156 148 154 174 166 163 160 181 194 163 151 186 220 202 210 235 222 232 248 271 264 249 264 272 290 292 290 270 326 114 224 266 300 326 11 107 112 129 142 146 155 158 159
328 329 328 328 323 318 316 310 313 316 313 313 310 309 309 307 307 307 308 310 311 313 317 320 328 329 327 341 11 333 266 256 269 280 298 301 304 308 294 183 174 176 175 167 159 159 148 162 174 156 177 179 182 188 159 153 178 221 211 201 242 228 233 241 265 273 267 264 257 232 263 250 185 182 139 207 252 310 349 95 112 118 130 143 152 157 159 159
328 328 326 323 321 321 318 311 314 316 313 314 311 309 307 305 304 304 306 307 308 310 312 317 325 325 326 347 61 277 247 258 283 296 298 295 301 290 216 171 173 174 171 171 163 156 157 173 179 173 190 177 173 177 171 184 188 212 203 193 239 246 258 257 267 270 277 271 206 230 260 86 131 213 166 213 259 309 109 105 112 124 136 149 158 158 159 158
324 324 324 322 321 321 315 311 315 316 312 310 309 309 307 305 302 301 304 305 306 306 307 313 316 321 326 338 159 242 261 278 305 325 332 316 298 216 191 173 171 171 165 165 163 164 175 177 172 173 166 151 173 165 170 193 168 178 190 208 239 258 295 288 268 271 302 253 203 230 270 76 123 214 184 216 212 189 131 111 119 132 145 158 162 160 157 158
320 320 322 323 322 318 311 310 315 313 310 312 311 307 304 304 303 302 302 302 303 302 303 306 309 317 314 337 183 225 264 319 319 30 32 7 270 185 185 173 168 171 162 158 176 178 173 157 153 145 162 161 164 150 177 192 139 155 170 199 237 266 284 249 262 268 272 254 202 212 252 81 146 183 194 157 169 190 143 130 141 141 154 166 167 164 156 161
321 319 322 324 318 315 315 317 317 309 309 312 309 308 304 301 301 300 299 299 299 298 299 300 301 288 259 260 233 233 249 278 246 31 40 26 126 172 185 174 169 173 167 163 188 181 162 161 162 145 158 156 149 151 196 180 146 153 158 187 221 267 262 234 254 258 218 254 164 176 201 210 213 208 244 173 166 185 147 142 152 153 164 170 176 174 165 169
323 323 324 322 315 318 324 323 320 313 312 312 307 307 305 298 297 297 296 294 294 295 294 296 286 244 230 229 243 246 257 262 260 267 276 312 257 212 222 177 174 178 175 174 184 176 164 172 178 162 134 161 150 140 146 142 155 150 149 212 216 238 245 219 308 123 198 224 162 187 214 204 231 262 256 177 173 174 158 168 167 163 170 174 184 182 174 177
324 326 322 317 315 320 324 322 322 318 313 311 308 306 304 300 296 293 292 288 287 289 284 281 253 227 218 249 263 267 265 262 261 258 258 267 244 228 228 183 185 191 150 126 165 180 181 163 172 160 143 180 141 139 124 71 232 150 143 168 194 218 224 175 69 161 188 156 173 214 225 185 229 271 273 154 190 193 180 177 164 168 176 178 187 185 183 186
324 324 319 318 318 319 320 317 317 318 316 312 309 308 304 299 294 289 286 280 278 276 272 254 217 211 251 269 277 279 255 255 255 252 254 248 217 205 205 187 195 203 164 103 114 177 197 172 142 165 158 161 152 180 173 82 30 132 164 163 141 199 225 356 111 176 193 81 135 223 211 171 255 279 325 151 206 221 207 165 157 181 186 182 188 190 192 192
325 324 323 325 325 324 323 317 314 317 318 313 310 309 304 300 295 286 274 268 267 251 235 220 202 201 266 279 284 272 233 239 251 258 254 231 213 193 179 170 176 191 185 164 103 120 183 176 146 169 131 154 182 166 141 158 152 2 215 165 146 184 200 10 111 115 2 118 139 251 218 135 320 310 4 147 196 229 230 186 173 187 187 188 196 199 201 202
328 330 329 330 331 330 327 320 318 318 317 315 315 311 309 309 297 279 259 242 234 202 192 192 186 198 254 276 286 265 237 238 251 265 237 216 210 187 161 147 142 152 142 142 133 105 142 167 164 148 121 146 171 164 175 191 177 167 212 143 133 181 185 187 152 50 29 148 155 162 256 220 226 323 357 161 193 214 224 214 186 189 191 193 202 204 207 213
327 327 326 327 327 327 324 321 319 319 322 320 319 315 317 336 329 240 169 168 156 161 194 206 177 201 250 264 273 259 288 301 275 259 223 202 198 181 155 137 132 136 125 104 142 161 155 172 186 161 168 170 165 186 194 184 162 164 167 154 132 156 178 181 174 53 25 34 139 158 235 238 259 293 300 200 201 212 229 244 180 190 197 197 207 210 211 219
324 322 323 324 324 323 321 322 320 321 325 320 323 322 313 52 63 101 130 155 150 146 203 195 184 202 300 225 243 306 315 304 282 246 193 178 181 166 137 130 133 136 146 145 161 182 166 141 174 183 182 178 176 189 193 166 159 163 163 165 148 148 165 182 214 20 31 21 155 185 217 219 284 303 335 356 224 224 239 324 265 201 202 208 212 213 218 224
324 324 325 324 324 323 320 322 320 321 325 321 329 338 157 131 76 107 130 197 220 256 312 196 198 245 322 175 34 354 329 301 279 224 178 172 167 149 124 124 128 138 160 161 163 174 180 173 181 186 174 168 175 180 170 146 149 141 132 142 138 151 157 182 237 64 58 223 152 188 176 57 355 342 346 341 263 222 237 265 255 220 216 224 224 223 228 229
326 324 325 326 322 320 319 321 319 319 320 317 323 336 179 279 88 101 231 234 241 252 269 237 205 238 268 259 11 15 358 320 319 268 186 176 164 154 158 148 145 165 167 150 141 136 190 192 183 176 162 159 170 167 139 120 129 126 132 137 133 172 162 176 250 49 7 242 110 189 92 56 18 9 358 347 52 89 311 248 212 227 227 228 236 236 234 233
325 322 324 329 324 317 317 318 317 314 309 307 309 283 252 208 108 24 324 259 250 235 243 243 218 243 256 260 287 351 7 285 294 293 175 172 175 172 168 159 162 163 148 144 137 147 191 197 185 168 143 118 121 148 139 127 132 122 131 153 160 174 172 238 238 31 357 6 115 117 84 57 13 3 12 14 32 35 17 45 57 317 234 231 239 242 238 236
318 318 320 326 323 317 318 315 313 309 302 300 267 222 213 157 38 346 321 267 277 228 222 228 221 237 245 253 252 212 210 226 256 284 172 170 187 177 160 164 170 150 153 175 170 164 186 198 179 154 136 121 112 149 142 122 131 131 145 168 167 162 184 186 166 105 49 29 79 120 95 68 23 0 27 27 19 7 29 65 53 41 12 290 249 238 242 242
312 311 315 324 323 319 318 315 314 314 319 302 257 241 242 346 348 341 316 241 280 238 209 209 207 222 229 232 199 183 203 205 213 257 180 174 171 155 163 161 160 159 173 187 180 169 174 175 152 141 151 145 131 150 150 144 157 160 178 179 166 173 195 172 140 209 166 79 94 144 119 73 21 0 31 19 356 2 36 59 49 39 28 10 348 108 205 241
310 307 313 324 324 320 318 315 319 345 329 298 266 275 8 355 354 346 296 264 269 253 218 192 191 220 213 198 173 170 189 208 210 222 178 178 168 145 162 157 164 180 174 171 176 175 167 141 140 145 161 152 140 155 173 171 165 177 216 203 180 180 189 141 78 294 178 143 126 207 176 110 11 346 32 3 349 25 45 52 45 37 34 28 28 38 46 81
312 312 318 324 322 322 322 316 333 331 318 291 253 290 356 348 349 324 236 291 260 240 168 162 182 196 181 168 158 149 162 214 211 210 193 184 178 154 152 152 164 179 163 155 173 181 139 142 152 152 154 154 153 165 182 179 166 182 208 190 177 172 170 159 149 182 197 167 119 299 231 150 64 339 10 347 340 33 49 49 42 36 35 31 25 20 25 47
314 315 321 323 320 325 328 309 318 320 305 250 334 268 313 338 342 233 207 302 260 189 136 146 214 180 170 167 159 151 174 171 168 197 200 184 185 186 165 166 145 156 154 149 178 180 132 147 157 151 152 161 166 169 178 176 169 177 178 170 170 164 168 171 171 194 223 5 160 326 285 144 138 78 355 332 314 27 42 41 39 36 32 28 26 25 28 37
311 314 319 319 315 315 308 297 307 303 260 273 302 294 320 335 339 191 242 312 248 253 138 161 189 169 153 162 167 169 200 136 140 184 187 182 188 210 174 176 162 156 162 176 180 150 144 170 168 156 159 177 181 170 167 167 170 194 164 167 169 158 165 172 174 189 3 267 209 167 179 168 142 345 335 326 322 39 37 36 40 38 34 33 35 35 38 39
308 313 316 314 308 302 298 291 281 269 275 301 301 309 324 335 157 182 303 271 219 309 104 140 152 154 123 156 188 223 317 142 176 149 155 179 195 229 169 173 156 154 165 200 183 137 170 189 173 161 167 185 182 158 164 169 173 146 130 124 115 93 107 147 173 166 127 229 222 171 188 195 142 195 287 350 67 44 37 44 48 45 42 42 41 44 48 45
305 309 311 310 305 302 302 285 267 270 291 306 313 321 330 7 172 205 203 240 284 358 358 173 178 145 140 151 195 231 248 325 115 123 131 169 181 54 90 103 128 147 150 208 179 142 87 148 159 172 178 175 156 132 166 171 139 127 126 113 103 94 93 103 101 140 157 212 229 183 274 231 171 168 239 320 53 54 57 56 53 52 52 49 48 50 51 50
303 306 309 304 297 297 303 287 268 253 326 318 324 329 335 160 234 198 173 287 320 336 335 197 152 138 154 163 182 206 222 328 134 145 145 155 151 127 131 127 110 132 145 177 176 131 83 125 154 199 173 140 126 113 126 137 129 133 135 140 135 127 143 122 98 171 187 200 215 5 311 232 203 157 167 180 75 67 61 59 58 58 57 55 55 55 54 53
301 305 305 296 287 276 265 256 229 210 305 321 330 333 168 189 263 213 243 327 310 293 324 326 145 154 170 186 181 184 188 165 161 159 153 161 164 160 165 168 160 153 171 180 166 155 156 157 207 242 165 159 140 126 101 119 160 165 149 161 164 156 163 163 159 174 189 192 67 6 269 217 209 102 141 150 81 62 53 65 70 65 65 62 59 58 57 55
305 306 300 290 280 266 256 255 261 274 296 321 332 293 185 215 222 221 254 324 106 185 302 317 322 207 180 192 176 173 183 171 171 166 154 159 164 162 161 167 159 153 172 172 155 166 176 228 262 200 172 185 163 149 145 157 188 189 168 172 176 164 164 170 162 156 178 178 46 348 265 201 132 114 141 146 86 60 63 75 79 76 73 69 64 60 56 54
310 304 298 291 281 271 265 262 265 272 291 315 301 184 178 195 235 236 230 253 169 183 265 306 328 302 183 192 170 164 177 186 168 161 152 157 167 170 163 173 168 121 114 154 161 180 179 202 206 185 174 179 172 166 154 150 170 185 171 174 182 178 177 173 161 157 157 135 95 110 206 198 151 117 144 148 105 73 85 89 86 81 74 71 66 59 54 51
309 304 301 295 283 276 271 260 253 246 241 270 217 167 200 212 246 241 207 285 230 252 312 308 325 312 205 226 197 175 184 204 161 156 156 165 172 172 163 172 181 132 130 162 180 175 181 218 195 164 159 171 170 165 131 131 149 176 150 162 201 192 145 121 104 105 126 122 106 117 267 300 7 27 177 148 117 105 109 98 86 77 68 64 58 53 51 47
309 309 305 289 277 281 279 242 212 191 178 193 176 190 224 222 211 222 226 2 356 339 327 307 308 305 237 241 203 195 210 105 156 159 161 167 162 165 167 168 176 169 151 158 170 146 160 197 138 91 171 182 170 158 155 159 148 139 176 185 197 134 114 118 100 39 91 147 122 45 250 163 201 216 178 160 157 139 118 98 87 77 69 64 56 53 50 42
312 312 303 282 278 287 278 187 167 163 166 194 199 204 223 238 227 216 214 13 351 332 348 346 257 252 226 229 199 195 194 136 161 167 157 165 156 164 172 172 179 181 167 151 183 204 177 165 127 156 178 196 136 129 122 334 134 132 183 171 129 73 80 110 128 115 166 154 112 23 186 181 196 172 157 175 190 162 133 106 92 80 74 71 60 58 54 45
311 305 289 282 286 281 229 168 154 152 160 199 222 235 221 226 235 208 343 354 348 337 63 133 244 234 200 208 197 186 188 171 163 156 151 169 191 160 161 174 192 186 181 167 147 207 192 152 131 209 169 121 49 130 114 48 47 100 160 151 134 170 177 153 145 160 163 137 110 113 246 224 218 181 168 184 186 161 138 109 98 88 77 72 60 57 54 46
304 294 285 303 310 235 179 158 150 147 188 200 219 240 215 236 268 286 313 322 335 6 60 202 240 262 216 202 179 169 184 173 153 143 161 184 170 155 163 183 187 177 182 178 146 128 261 157 138 214 188 120 130 172 165 166 152 56 127 147 140 210 171 161 139 163 164 139 126 128 54 243 225 196 182 181 173 156 133 107 102 93 76 67 60 58 52 46
297 280 295 5 359 167 157 150 152 170 191 203 215 232 277 304 298 301 303 296 303 105 236 238 237 262 265 223 183 155 128 138 147 138 206 151 97 277 256 238 179 165 157 118 133 129 1 126 125 108 222 187 159 186 189 170 158 144 155 169 175 78 120 138 101 57 157 152 142 135 187 236 216 96 174 170 159 148 129 115 111 95 80 72 61 59 54 50
294 267 206 19 139 149 148 150 184 192 190 231 229 245 289 323 303 287 268 265 271 191 234 251 251 261 272 244 204 151 96 90 124 105 101 152 115 210 223 223 174 158 134 106 145 169 144 130 131 112 143 165 137 116 206 211 185 160 173 180 171 144 146 160 161 112 71 128 144 152 186 195 74 80 175 159 141 136 129 121 114 96 84 75 63 62 57 49
270 235 26 156 153 150 152 177 186 165 209 238 227 246 270 271 266 276 261 242 239 213 235 258 252 245 240 229 207 126 112 87 69 89 116 146 197 214 183 153 175 159 143 129 161 177 125 104 109 79 83 115 37 72 103 205 157 106 108 170 158 148 162 174 177 162 121 102 116 153 180 130 63 153 158 139 127 130 128 118 112 103 90 81 72 69 64 58
247 337 4 156 158 157 251 217 174 241 229 254 291 257 252 251 252 280 302 167 221 225 229 242 234 222 220 228 176 133 130 83 47 113 115 118 167 238 267 193 171 146 132 130 150 159 138 78 93 79 9 353 46 81 79 96 137 112 60 56 138 166 139 146 156 151 148 140 137 167 181 172 179 133 124 120 119 120 116 111 113 111 99 91 83 72 67 66
272 308 8 158 172 226 304 185 182 236 215 268 306 255 252 245 236 252 256 214 217 238 255 247 231 217 223 230 111 131 154 115 58 70 100 124 154 18 357 183 178 159 143 175 169 165 178 155 135 136 120 95 106 130 128 108 115 102 71 46 35 103 106 104 100 123 152 161 170 183 187 198 145 123 116 116 115 110 107 108 113 113 109 103 89 76 70 69
273 273 62 157 198 268 306 205 296 199 200 271 290 263 266 244 233 231 228 234 232 229 248 267 258 236 206 100 81 70 50 97 120 170 141 114 133 23 22 35 185 169 115 112 113 121 121 95 155 165 158 153 150 150 141 130 118 89 71 41 33 76 114 126 123 150 175 168 165 182 167 143 136 129 128 130 121 112 107 104 106 111 113 107 90 79 72 67
270 205 103 146 210 266 286 284 288 203 178 195 237 259 224 227 273 231 207 236 244 224 226 272 282 329 38 64 79 53 19 43 86 123 147 127 110 5 355 21 93 101 99 86 70 89 105 65 41 77 112 140 131 50 348 0 127 119 77 39 28 15 358 94 129 163 163 144 161 208 146 150 161 154 148 147 135 127 125 118 115 116 111 101 88 79 74 70
282 244 162 159 197 243 261 272 264 249 236 183 199 261 214 220 300 277 194 223 231 203 213 249 318 39 70 95 97 70 23 47 68 89 111 98 111 82 325 32 64 54 83 80 36 64 111 85 57 67 64 49 51 30 355 34 87 100 84 51 22 358 355 123 136 137 136 141 173 194 161 161 172 168 155 150 141 136 136 131 125 120 108 100 93 84 79 72
258 289 258 264 240 208 217 233 227 238 256 227 203 278 262 203 288 266 232 252 261 170 196 213 19 16 351 128 115 110 88 74 55 59 107 84 101 89 11 44 33 354 19 68 15 66 102 92 111 95 75 56 49 47 67 86 86 79 72 61 38 20 28 114 114 82 139 165 177 171 170 166 162 158 148 140 138 134 129 124 118 112 105 102 98 86 79 72
261 285 289 292 276 232 215 207 191 215 239 249 251 254 165 222 258 248 249 296 320 343 101 89 7 349 334 10 107 114 139 125 103 176 152 82 71 76 55 70 48 16 48 69 43 71 94 90 139 125 84 54 40 46 82 102 97 78 64 56 58 64 70 90 101 78 41 14 144 156 157 137 112 132 124 116 121 116 110 103 97 95 95 94 90 78 71 69
272 325 313 292 286 276 248 215 177 199 224 245 256 245 128 227 262 265 245 241 302 326 46 95 51 8 31 61 80 82 220 165 123 134 175 132 93 89 80 103 71 42 50 60 42 346 79 114 156 150 90 51 38 58 84 103 105 87 66 50 57 76 78 78 86 78 64 89 128 141 142 125 88 111 109 110 110 99 96 91 83 82 83 85 81 71 64 62
287 309 303 288 280 257 222 194 152 180 206 230 230 213 144 235 262 302 277 224 168 327 24 125 126 64 53 62 64 56 350 94 90 93 131 124 97 87 66 71 232 71 57 56 25 3 62 121 154 182 113 63 40 69 81 96 103 90 65 39 35 57 76 72 66 48 77 132 133 135 148 160 147 122 108 104 99 90 86 84 82 78 74 76 75 67 59 52
315 303 290 276 276 257 218 168 125 178 210 210 208 186 182 234 261 14 324 313 64 38 12 135 130 87 62 66 59 23 40 94 92 91 97 94 85 81 83 78 64 51 75 97 64 16 82 131 149 176 117 109 45 50 49 140 128 102 51 15 13 39 75 85 63 31 17 135 142 141 142 137 138 132 117 107 101 93 83 79 85 88 82 76 74 71 64 56